STARLINK-6062 (56104 NORAD) Tracking and Keplerian Element Data

This shows tracking and keplerian element data for the satellite.

Feedback or suggestion? Click here.




ElementValue
Catalog56104
NameSTARLINK-6062
Epoch Orbit652
Epoch Day127.25001157
Epoch Year2023
RAAN37.8457
Inclination43.0007
Eccentricity0.0001505
Argument of Perigee276.2327
Mean Anonmoly85.9972
Mean Motion15.28865532
Decay Rate-0.00902036
L11 56104U 23046M 23127.25001157 -.00902036 00000+0 -34369-1 0 9994
L22 56104 43.0007 37.8457 0001505 276.2327 85.9972 15.28865532 6524



Live tracking and technical data element details for STARLINK-6062 (NORAD 56104). STARLINK-6062 can be tracked NOW for your location showing map with azimuth and elevation plus other details from your city location.







IsCatalogInMostPopularTable: catalog: 56104, numindb: 1
Update: records affected: 1



GetName: 56104 STARLINK-6062

Hit Count: updated at: Sat, 03 Jun 2023 17:22:45 GMT